Location: Seasalter
(51.3333°N, 1.0167°E)
Time: 06:52:54
(UTC+00:00)

ATLAS 5 CENTAUR R/B - Pass Details

Date: 26 April 2024
Orbit: 421 x 1169 km, 63.3° (Epoch: 18 May)

Event Time Altitude Azimuth Distance (km) Brightness Sun altitude
Rises 20:25:13 0° 288° (WNW) 2,517 6.2 -10.7°
Reaches altitude 10° 20:27:49 10° 310° (NW) 1,730 5.5 -11.0°
Maximum altitude 20:30:24 17° 353° (N) 1,439 4.1 -11.3°
Drops below altitude 10° 20:33:18 10° 35° (NE) 1,968 4.2 -11.6°
Sets 20:36:33 0° 55° (NE) 3,042 5.0 -12.0°
